owner,sensor,date,latitude,longitude,vertical_datum,sea_water_practical_salinity,qcFlag 
DISL,ioos:station:DISL:BSCA:1,2019-01-01T00:00:00Z,30.3288,-87.8293,2.0,14.5,11111222 
DISL,ioos:station:DISL:BSCA:1,2019-01-01T00:30:00Z,30.3288,-87.8293,2.0,14.5,11111222 
DISL,ioos:station:DISL:BSCA:1,2019-01-01T01:00:00Z,30.3288,-87.8293,2.0,14.6,11111222 
DISL,ioos:station:DISL:BSCA:1,2019-01-01T01:30:00Z,30.3288,-87.8293,2.0,14.6,11111222 
DISL,ioos:station:DISL:BSCA:1,2019-01-01T02:00:00Z,30.3288,-87.8293,2.1,14.6,11111222 
DISL,ioos:station:DISL:BSCA:1,2019-01-01T02:30:00Z,30.3288,-87.8293,2.0,14.6,11111222 
DISL,ioos:station:DISL:BSCA:1,2019-01-01T03:00:00Z,30.3288,-87.8293,2.0,14.5,11111222 
DISL,ioos:station:DISL:BSCA:1,2019-01-01T03:30:00Z,30.3288,-87.8293,2.0,14.5,11111222 
DISL,ioos:station:DISL:BSCA:1,2019-01-01T04:00:00Z,30.3288,-87.8293,2.0,14.5,11111222 
DISL,ioos:station:DISL:BSCA:1,2019-01-01T04:30:00Z,30.3288,-87.8293,2.0,14.5,11111222 
DISL,ioos:station:DISL:BSCA:1,2019-01-01T05:00:00Z,30.3288,-87.8293,1.9,14.5,11111222 
DISL,ioos:station:DISL:BSCA:1,2019-01-01T05:30:00Z,30.3288,-87.8293,1.9,14.6,11111222 
DISL,ioos:station:DISL:BSCA:1,2019-01-01T06:00:00Z,30.3288,-87.8293,1.9,14.6,11111222 
DISL,ioos:station:DISL:BSCA:1,2019-01-01T06:30:00Z,30.3288,-87.8293,1.8,14.6,11111222 
DISL,ioos:station:DISL:BSCA:1,2019-01-01T07:00:00Z,30.3288,-87.8293,1.746,14.68,1111122 
DISL,ioos:station:DISL:BSCA:1,2019-01-01T07:30:00Z,30.3288,-87.8293,1.7,14.2,11111222 
DISL,ioos:station:DISL:BSCA:1,2019-01-01T08:00:00Z,30.3288,-87.8293,1.691,13.82,1111122 
DISL,ioos:station:DISL:BSCA:1,2019-01-01T08:30:00Z,30.3288,-87.8293,1.7,13.9,11111222 
DISL,ioos:station:DISL:BSCA:1,2019-01-01T09:30:00Z,30.3288,-87.8293,1.619,13.86,1111122 
DISL,ioos:station:DISL:BSCA:1,2019-01-01T10:00:00Z,30.3288,-87.8293,1.6,14.3,11111222 
DISL,ioos:station:DISL:BSCA:1,2019-01-01T10:30:00Z,30.3288,-87.8293,1.579,14.61,1111122 
DISL,ioos:station:DISL:BSCA:1,2019-01-01T11:00:00Z,30.3288,-87.8293,1.6,14.6,11111222 
DISL,ioos:station:DISL:BSCA:1,2019-01-01T11:30:00Z,30.3288,-87.8293,1.539,14.58,1111122 
DISL,ioos:station:DISL:BSCA:1,2019-01-01T12:00:00Z,30.3288,-87.8293,1.5,14.6,11111222 
DISL,ioos:station:DISL:BSCA:1,2019-01-01T12:30:00Z,30.3288,-87.8293,1.522,14.54,1111122 
DISL,ioos:station:DISL:BSCA:1,2019-01-01T13:00:00Z,30.3288,-87.8293,1.5,14.6,11111222 
DISL,ioos:station:DISL:BSCA:1,2019-01-01T13:30:00Z,30.3288,-87.8293,1.542,14.56,1111122 
DISL,ioos:station:DISL:BSCA:1,2019-01-01T14:00:00Z,30.3288,-87.8293,1.6,14.6,11111222 
DISL,ioos:station:DISL:BSCA:1,2019-01-01T14:30:00Z,30.3288,-87.8293,1.579,14.57,1111122 
DISL,ioos:station:DISL:BSCA:1,2019-01-01T15:00:00Z,30.3288,-87.8293,1.6,14.5,11111222 
DISL,ioos:station:DISL:BSCA:1,2019-01-01T15:30:00Z,30.3288,-87.8293,1.63,14.5,1111122 
DISL,ioos:station:DISL:BSCA:1,2019-01-01T16:00:00Z,30.3288,-87.8293,1.6,14.3,11111222 
DISL,ioos:station:DISL:BSCA:1,2019-01-01T16:30:00Z,30.3288,-87.8293,1.663,14.12,1111122 
DISL,ioos:station:DISL:BSCA:1,2019-01-01T17:00:00Z,30.3288,-87.8293,1.7,14.2,11111222 
DISL,ioos:station:DISL:BSCA:1,2019-01-01T17:30:00Z,30.3288,-87.8293,1.677,14.19,1111122 
DISL,ioos:station:DISL:BSCA:1,2019-01-01T18:00:00Z,30.3288,-87.8293,1.7,14.2,11111222 
DISL,ioos:station:DISL:BSCA:1,2019-01-01T18:30:00Z,30.3288,-87.8293,1.717,14.31,1111122 
DISL,ioos:station:DISL:BSCA:1,2019-01-01T19:00:00Z,30.3288,-87.8293,1.7,14.4,11111222 
DISL,ioos:station:DISL:BSCA:1,2019-01-01T19:30:00Z,30.3288,-87.8293,1.769,14.48,1111122 
DISL,ioos:station:DISL:BSCA:1,2019-01-01T20:00:00Z,30.3288,-87.8293,1.8,14.6,11111222 
DISL,ioos:station:DISL:BSCA:1,2019-01-01T20:30:00Z,30.3288,-87.8293,1.797,14.62,1111122 
DISL,ioos:station:DISL:BSCA:1,2019-01-01T21:00:00Z,30.3288,-87.8293,1.8,14.7,11111222 
DISL,ioos:station:DISL:BSCA:1,2019-01-01T21:30:00Z,30.3288,-87.8293,1.829,14.71,1111122 
DISL,ioos:station:DISL:BSCA:1,2019-01-01T22:00:00Z,30.3288,-87.8293,1.9,14.7,11111222 
DISL,ioos:station:DISL:BSCA:1,2019-01-01T22:30:00Z,30.3288,-87.8293,1.869,14.77,1111122 
DISL,ioos:station:DISL:BSCA:1,2019-01-01T23:00:00Z,30.3288,-87.8293,1.9,14.8,11111222 
DISL,ioos:station:DISL:BSCA:1,2019-01-01T23:30:00Z,30.3288,-87.8293,1.89,14.81,1111122 
DISL,ioos:station:DISL:BSCA:1,2019-01-02T00:00:00Z,30.3288,-87.8293,1.9,14.8,11111222 
DISL,ioos:station:DISL:BSCA:1,2019-01-02T00:30:00Z,30.3288,-87.8293,1.897,14.86,1111122 
DISL,ioos:station:DISL:BSCA:1,2019-01-02T01:00:00Z,30.3288,-87.8293,1.9,14.9,11111222 
DISL,ioos:station:DISL:BSCA:1,2019-01-02T01:30:00Z,30.3288,-87.8293,1.91,14.88,1111122 
DISL,ioos:station:DISL:BSCA:1,2019-01-02T02:00:00Z,30.3288,-87.8293,1.9,14.9,11111222 
DISL,ioos:station:DISL:BSCA:1,2019-01-02T02:30:00Z,30.3288,-87.8293,1.902,14.84,1111122 
DISL,ioos:station:DISL:BSCA:1,2019-01-02T03:00:00Z,30.3288,-87.8293,1.9,14.9,11111222 
DISL,ioos:station:DISL:BSCA:1,2019-01-02T03:30:00Z,30.3288,-87.8293,1.869,14.9,1111122 
DISL,ioos:station:DISL:BSCA:1,2019-01-02T04:00:00Z,30.3288,-87.8293,1.8,14.8,11111222 
DISL,ioos:station:DISL:BSCA:1,2019-01-02T04:30:00Z,30.3288,-87.8293,1.792,14.71,1111122 
DISL,ioos:station:DISL:BSCA:1,2019-01-02T05:00:00Z,30.3288,-87.8293,1.8,14.6,11111222 
DISL,ioos:station:DISL:BSCA:1,2019-01-02T05:30:00Z,30.3288,-87.8293,1.741,14.74,1111122 
DISL,ioos:station:DISL:BSCA:1,2019-01-02T06:00:00Z,30.3288,-87.8293,1.7,14.7,11111222 
DISL,ioos:station:DISL:BSCA:1,2019-01-02T06:30:00Z,30.3288,-87.8293,1.692,14.85,1111122 
DISL,ioos:station:DISL:BSCA:1,2019-01-02T07:00:00Z,30.3288,-87.8293,1.6,14.9,11111222 
DISL,ioos:station:DISL:BSCA:1,2019-01-02T07:30:00Z,30.3288,-87.8293,1.607,14.43,1111122 
DISL,ioos:station:DISL:BSCA:1,2019-01-02T08:00:00Z,30.3288,-87.8293,1.6,14.4,11111222 
DISL,ioos:station:DISL:BSCA:1,2019-01-02T08:30:00Z,30.3288,-87.8293,1.531,14.48,1111122 
DISL,ioos:station:DISL:BSCA:1,2019-01-02T09:00:00Z,30.3288,-87.8293,1.5,14.4,11111222 
DISL,ioos:station:DISL:BSCA:1,2019-01-02T09:30:00Z,30.3288,-87.8293,1.482,14.35,1111122 
DISL,ioos:station:DISL:BSCA:1,2019-01-02T10:00:00Z,30.3288,-87.8293,1.5,14.4,11111222 
DISL,ioos:station:DISL:BSCA:1,2019-01-02T10:30:00Z,30.3288,-87.8293,1.469,14.69,1111122 
DISL,ioos:station:DISL:BSCA:1,2019-01-02T11:00:00Z,30.3288,-87.8293,1.5,14.6,11111222 
DISL,ioos:station:DISL:BSCA:1,2019-01-02T11:30:00Z,30.3288,-87.8293,1.441,14.78,1111122 
DISL,ioos:station:DISL:BSCA:1,2019-01-02T12:30:00Z,30.3288,-87.8293,1.411,14.93,1111122 
DISL,ioos:station:DISL:BSCA:1,2019-01-02T13:30:00Z,30.3288,-87.8293,1.415,15.14,1111122 
DISL,ioos:station:DISL:BSCA:1,2019-01-02T14:30:00Z,30.3288,-87.8293,1.452,15.49,1111122 
DISL,ioos:station:DISL:BSCA:1,2019-01-02T15:30:00Z,30.3288,-87.8293,1.512,15.32,1111122 
DISL,ioos:station:DISL:BSCA:1,2019-01-02T16:30:00Z,30.3288,-87.8293,1.565,15.74,1111122 
DISL,ioos:station:DISL:BSCA:1,2019-01-02T17:30:00Z,30.3288,-87.8293,1.606,15.06,1111122 
DISL,ioos:station:DISL:BSCA:1,2019-01-02T18:30:00Z,30.3288,-87.8293,1.633,15.49,1111122 
DISL,ioos:station:DISL:BSCA:1,2019-01-02T19:30:00Z,30.3288,-87.8293,1.69,15.66,1111122 
DISL,ioos:station:DISL:BSCA:1,2019-01-02T20:00:00Z,30.3288,-87.8293,1.7,15.9,11111222 
DISL,ioos:station:DISL:BSCA:1,2019-01-02T20:30:00Z,30.3288,-87.8293,1.762,15.76,1111122 
DISL,ioos:station:DISL:BSCA:1,2019-01-02T21:00:00Z,30.3288,-87.8293,1.8,15.8,11111222 
DISL,ioos:station:DISL:BSCA:1,2019-01-02T21:30:00Z,30.3288,-87.8293,1.824,15.79,1111122 
DISL,ioos:station:DISL:BSCA:1,2019-01-02T22:00:00Z,30.3288,-87.8293,1.8,15.8,11111222 
DISL,ioos:station:DISL:BSCA:1,2019-01-02T22:30:00Z,30.3288,-87.8293,1.876,15.81,1111122 
DISL,ioos:station:DISL:BSCA:1,2019-01-02T23:00:00Z,30.3288,-87.8293,1.9,16.0,11111222 
DISL,ioos:station:DISL:BSCA:1,2019-01-02T23:30:00Z,30.3288,-87.8293,1.937,15.8,1111122 
DISL,ioos:station:DISL:BSCA:1,2019-01-03T00:00:00Z,30.3288,-87.8293,2.0,15.3,11111222 
DISL,ioos:station:DISL:BSCA:1,2019-01-03T00:30:00Z,30.3288,-87.8293,1.976,15.12,1111122 
DISL,ioos:station:DISL:BSCA:1,2019-01-03T01:00:00Z,30.3288,-87.8293,2.0,14.8,11111222 
DISL,ioos:station:DISL:BSCA:1,2019-01-03T01:30:00Z,30.3288,-87.8293,1.991,15.42,1111122 
DISL,ioos:station:DISL:BSCA:1,2019-01-03T02:00:00Z,30.3288,-87.8293,2.0,15.3,11111222 
DISL,ioos:station:DISL:BSCA:1,2019-01-03T02:30:00Z,30.3288,-87.8293,2.0,15.1,11111222 
DISL,ioos:station:DISL:BSCA:1,2019-01-03T03:00:00Z,30.3288,-87.8293,2.0,14.9,11111222 
DISL,ioos:station:DISL:BSCA:1,2019-01-03T03:30:00Z,30.3288,-87.8293,2.0,14.7,11111222 
DISL,ioos:station:DISL:BSCA:1,2019-01-03T04:00:00Z,30.3288,-87.8293,2.0,14.5,11111222 
DISL,ioos:station:DISL:BSCA:1,2019-01-03T04:30:00Z,30.3288,-87.8293,1.9,14.2,11111222 
DISL,ioos:station:DISL:BSCA:1,2019-01-03T05:00:00Z,30.3288,-87.8293,1.9,14.2,11111222 
DISL,ioos:station:DISL:BSCA:1,2019-01-03T05:30:00Z,30.3288,-87.8293,1.9,14.1,11111222 
DISL,ioos:station:DISL:BSCA:1,2019-01-03T06:00:00Z,30.3288,-87.8293,1.8,14.4,11111222 
DISL,ioos:station:DISL:BSCA:1,2019-01-03T06:30:00Z,30.3288,-87.8293,1.815,14.0,1111122 
DISL,ioos:station:DISL:BSCA:1,2019-01-03T07:00:00Z,30.3288,-87.8293,1.8,13.8,11111222 
DISL,ioos:station:DISL:BSCA:1,2019-01-03T07:30:00Z,30.3288,-87.8293,1.737,14.23,1111122 
DISL,ioos:station:DISL:BSCA:1,2019-01-03T08:00:00Z,30.3288,-87.8293,1.7,14.2,11111222 
DISL,ioos:station:DISL:BSCA:1,2019-01-03T08:30:00Z,30.3288,-87.8293,1.675,14.27,1111122 
DISL,ioos:station:DISL:BSCA:1,2019-01-03T09:00:00Z,30.3288,-87.8293,1.6,14.3,11111222 
DISL,ioos:station:DISL:BSCA:1,2019-01-03T09:30:00Z,30.3288,-87.8293,1.61,13.75,1111122 
DISL,ioos:station:DISL:BSCA:1,2019-01-03T10:00:00Z,30.3288,-87.8293,1.6,12.9,11111222 
DISL,ioos:station:DISL:BSCA:1,2019-01-03T10:30:00Z,30.3288,-87.8293,1.548,13.12,1111122 
DISL,ioos:station:DISL:BSCA:1,2019-01-03T11:00:00Z,30.3288,-87.8293,1.5,13.5,11111222 
DISL,ioos:station:DISL:BSCA:1,2019-01-03T11:30:00Z,30.3288,-87.8293,1.5,13.49,1111122 
DISL,ioos:station:DISL:BSCA:1,2019-01-03T12:00:00Z,30.3288,-87.8293,1.5,14.0,11111222 
DISL,ioos:station:DISL:BSCA:1,2019-01-03T12:30:00Z,30.3288,-87.8293,1.481,14.14,1111122 
DISL,ioos:station:DISL:BSCA:1,2019-01-03T13:00:00Z,30.3288,-87.8293,1.5,13.9,11111222 
DISL,ioos:station:DISL:BSCA:1,2019-01-03T13:30:00Z,30.3288,-87.8293,1.484,13.76,1111122 
DISL,ioos:station:DISL:BSCA:1,2019-01-03T14:00:00Z,30.3288,-87.8293,1.5,13.5,11111222 
DISL,ioos:station:DISL:BSCA:1,2019-01-03T14:30:00Z,30.3288,-87.8293,1.429,13.13,1111122 
DISL,ioos:station:DISL:BSCA:1,2019-01-03T15:00:00Z,30.3288,-87.8293,1.4,12.7,11111222 
DISL,ioos:station:DISL:BSCA:1,2019-01-03T15:30:00Z,30.3288,-87.8293,1.331,11.6,1111122 
DISL,ioos:station:DISL:BSCA:1,2019-01-03T16:00:00Z,30.3288,-87.8293,1.3,10.9,11111222 
DISL,ioos:station:DISL:BSCA:1,2019-01-03T16:30:00Z,30.3288,-87.8293,1.292,10.51,1111122 
DISL,ioos:station:DISL:BSCA:1,2019-01-03T17:00:00Z,30.3288,-87.8293,1.4,10.6,11111222 
DISL,ioos:station:DISL:BSCA:1,2019-01-03T17:30:00Z,30.3288,-87.8293,1.385,10.75,1111122 
DISL,ioos:station:DISL:BSCA:1,2019-01-03T18:00:00Z,30.3288,-87.8293,1.5,12.9,11111222 
DISL,ioos:station:DISL:BSCA:1,2019-01-03T18:30:00Z,30.3288,-87.8293,1.517,13.67,1111122 
DISL,ioos:station:DISL:BSCA:1,2019-01-03T19:00:00Z,30.3288,-87.8293,1.6,14.0,11111222 
DISL,ioos:station:DISL:BSCA:1,2019-01-03T19:30:00Z,30.3288,-87.8293,1.632,13.32,1111122 
DISL,ioos:station:DISL:BSCA:1,2019-01-03T20:00:00Z,30.3288,-87.8293,1.7,13.8,11111222 
DISL,ioos:station:DISL:BSCA:1,2019-01-03T20:30:00Z,30.3288,-87.8293,1.73,13.83,1111122 
DISL,ioos:station:DISL:BSCA:1,2019-01-03T21:00:00Z,30.3288,-87.8293,1.8,13.9,11111222 
DISL,ioos:station:DISL:BSCA:1,2019-01-03T21:30:00Z,30.3288,-87.8293,1.794,13.98,1111122 
DISL,ioos:station:DISL:BSCA:1,2019-01-03T22:00:00Z,30.3288,-87.8293,1.8,13.6,11111222 
DISL,ioos:station:DISL:BSCA:1,2019-01-03T22:30:00Z,30.3288,-87.8293,1.847,13.11,1111122 
DISL,ioos:station:DISL:BSCA:1,2019-01-03T23:00:00Z,30.3288,-87.8293,1.9,12.7,11111222 
DISL,ioos:station:DISL:BSCA:1,2019-01-03T23:30:00Z,30.3288,-87.8293,1.911,12.09,1111122 
DISL,ioos:station:DISL:BSCA:1,2019-01-04T00:00:00Z,30.3288,-87.8293,2.0,12.2,11111222 
DISL,ioos:station:DISL:BSCA:1,2019-01-04T00:30:00Z,30.3288,-87.8293,1.994,13.39,1111122 
DISL,ioos:station:DISL:BSCA:1,2019-01-04T01:00:00Z,30.3288,-87.8293,2.0,13.1,11111222 
DISL,ioos:station:DISL:BSCA:1,2019-01-04T01:30:00Z,30.3288,-87.8293,2.03,13.19,1111122 
DISL,ioos:station:DISL:BSCA:1,2019-01-04T02:00:00Z,30.3288,-87.8293,2.0,12.0,11111222 
DISL,ioos:station:DISL:BSCA:1,2019-01-04T02:30:00Z,30.3288,-87.8293,2.0,12.01,1111122 
DISL,ioos:station:DISL:BSCA:1,2019-01-04T03:00:00Z,30.3288,-87.8293,2.0,11.9,11111222 
DISL,ioos:station:DISL:BSCA:1,2019-01-04T03:30:00Z,30.3288,-87.8293,2.009,11.94,1111122 
DISL,ioos:station:DISL:BSCA:1,2019-01-04T04:00:00Z,30.3288,-87.8293,2.0,12.0,11111222 
DISL,ioos:station:DISL:BSCA:1,2019-01-04T04:30:00Z,30.3288,-87.8293,2.016,12.06,1111122 
DISL,ioos:station:DISL:BSCA:1,2019-01-04T05:00:00Z,30.3288,-87.8293,2.0,12.1,11111222 
DISL,ioos:station:DISL:BSCA:1,2019-01-04T05:30:00Z,30.3288,-87.8293,2.029,12.15,1111122 
DISL,ioos:station:DISL:BSCA:1,2019-01-04T06:00:00Z,30.3288,-87.8293,2.0,12.2,11111222 
DISL,ioos:station:DISL:BSCA:1,2019-01-04T06:30:00Z,30.3288,-87.8293,2.066,12.18,1111122 
DISL,ioos:station:DISL:BSCA:1,2019-01-04T07:00:00Z,30.3288,-87.8293,2.1,12.2,11111222 
DISL,ioos:station:DISL:BSCA:1,2019-01-04T07:30:00Z,30.3288,-87.8293,2.153,12.19,1111122 
DISL,ioos:station:DISL:BSCA:1,2019-01-04T08:00:00Z,30.3288,-87.8293,2.1,12.3,11111222 
DISL,ioos:station:DISL:BSCA:1,2019-01-04T08:30:00Z,30.3288,-87.8293,2.063,12.27,1111122 
DISL,ioos:station:DISL:BSCA:1,2019-01-04T09:00:00Z,30.3288,-87.8293,2.0,12.3,11111222 
DISL,ioos:station:DISL:BSCA:1,2019-01-04T09:30:00Z,30.3288,-87.8293,1.978,12.22,1111122 
DISL,ioos:station:DISL:BSCA:1,2019-01-04T10:00:00Z,30.3288,-87.8293,2.0,12.2,11111222 
DISL,ioos:station:DISL:BSCA:1,2019-01-04T10:30:00Z,30.3288,-87.8293,1.985,12.24,1111122 
DISL,ioos:station:DISL:BSCA:1,2019-01-04T11:00:00Z,30.3288,-87.8293,2.0,12.3,11111222 
DISL,ioos:station:DISL:BSCA:1,2019-01-04T11:30:00Z,30.3288,-87.8293,1.988,12.25,1111122 
DISL,ioos:station:DISL:BSCA:1,2019-01-04T12:00:00Z,30.3288,-87.8293,2.0,12.2,11111222 
DISL,ioos:station:DISL:BSCA:1,2019-01-04T12:30:00Z,30.3288,-87.8293,1.943,12.16,1111122 
DISL,ioos:station:DISL:BSCA:1,2019-01-04T13:00:00Z,30.3288,-87.8293,1.9,12.0,11111222 
DISL,ioos:station:DISL:BSCA:1,2019-01-04T13:30:00Z,30.3288,-87.8293,1.807,11.93,1111122 
DISL,ioos:station:DISL:BSCA:1,2019-01-04T14:30:00Z,30.3288,-87.8293,1.762,11.86,1111122 
DISL,ioos:station:DISL:BSCA:1,2019-01-04T15:00:00Z,30.3288,-87.8293,1.8,11.9,11111222 
DISL,ioos:station:DISL:BSCA:1,2019-01-04T15:30:00Z,30.3288,-87.8293,1.767,11.89,1111122 
DISL,ioos:station:DISL:BSCA:1,2019-01-04T16:00:00Z,30.3288,-87.8293,1.8,11.7,11111222 
DISL,ioos:station:DISL:BSCA:1,2019-01-04T16:30:00Z,30.3288,-87.8293,1.715,11.66,1111122 
DISL,ioos:station:DISL:BSCA:1,2019-01-04T17:00:00Z,30.3288,-87.8293,1.7,11.8,11111222 
DISL,ioos:station:DISL:BSCA:1,2019-01-04T17:30:00Z,30.3288,-87.8293,1.779,11.73,1111122 
DISL,ioos:station:DISL:BSCA:1,2019-01-04T18:00:00Z,30.3288,-87.8293,1.8,11.7,11111222 
DISL,ioos:station:DISL:BSCA:1,2019-01-04T18:30:00Z,30.3288,-87.8293,1.8,11.65,1111122 
DISL,ioos:station:DISL:BSCA:1,2019-01-04T19:00:00Z,30.3288,-87.8293,1.8,11.8,11111222 
DISL,ioos:station:DISL:BSCA:1,2019-01-04T19:30:00Z,30.3288,-87.8293,1.726,11.75,1111122 
DISL,ioos:station:DISL:BSCA:1,2019-01-04T20:00:00Z,30.3288,-87.8293,1.7,11.7,11111222 
DISL,ioos:station:DISL:BSCA:1,2019-01-04T20:30:00Z,30.3288,-87.8293,1.723,11.68,1111122 
DISL,ioos:station:DISL:BSCA:1,2019-01-04T21:00:00Z,30.3288,-87.8293,1.7,11.6,11111222 
DISL,ioos:station:DISL:BSCA:1,2019-01-04T21:30:00Z,30.3288,-87.8293,1.795,11.72,1111122 
DISL,ioos:station:DISL:BSCA:1,2019-01-04T22:00:00Z,30.3288,-87.8293,1.8,11.8,11111222 
DISL,ioos:station:DISL:BSCA:1,2019-01-04T22:30:00Z,30.3288,-87.8293,1.846,11.91,1111122 
DISL,ioos:station:DISL:BSCA:1,2019-01-04T23:00:00Z,30.3288,-87.8293,1.9,11.9,11111222 
DISL,ioos:station:DISL:BSCA:1,2019-01-04T23:30:00Z,30.3288,-87.8293,1.912,11.94,1111122 
DISL,ioos:station:DISL:BSCA:1,2019-01-05T00:00:00Z,30.3288,-87.8293,1.9,12.0,11111222 
DISL,ioos:station:DISL:BSCA:1,2019-01-05T00:30:00Z,30.3288,-87.8293,1.947,12.17,1111122 
DISL,ioos:station:DISL:BSCA:1,2019-01-05T01:00:00Z,30.3288,-87.8293,1.9,12.2,11111222 
DISL,ioos:station:DISL:BSCA:1,2019-01-05T01:30:00Z,30.3288,-87.8293,1.962,12.26,1111122 
DISL,ioos:station:DISL:BSCA:1,2019-01-05T02:00:00Z,30.3288,-87.8293,2.0,12.3,11111222 
DISL,ioos:station:DISL:BSCA:1,2019-01-05T02:30:00Z,30.3288,-87.8293,1.977,12.28,1111122 
DISL,ioos:station:DISL:BSCA:1,2019-01-05T03:00:00Z,30.3288,-87.8293,2.0,12.2,11111222 
DISL,ioos:station:DISL:BSCA:1,2019-01-05T03:30:00Z,30.3288,-87.8293,1.981,12.21,1111122 
DISL,ioos:station:DISL:BSCA:1,2019-01-05T04:00:00Z,30.3288,-87.8293,2.0,12.2,11111222 
DISL,ioos:station:DISL:BSCA:1,2019-01-05T04:30:00Z,30.3288,-87.8293,1.951,12.16,1111122 
DISL,ioos:station:DISL:BSCA:1,2019-01-05T05:00:00Z,30.3288,-87.8293,1.9,12.2,11111222 
DISL,ioos:station:DISL:BSCA:1,2019-01-05T05:30:00Z,30.3288,-87.8293,1.91,12.23,1111122 
DISL,ioos:station:DISL:BSCA:1,2019-01-05T06:00:00Z,30.3288,-87.8293,1.9,12.1,11111222 
DISL,ioos:station:DISL:BSCA:1,2019-01-05T06:30:00Z,30.3288,-87.8293,1.821,12.06,1111122 
DISL,ioos:station:DISL:BSCA:1,2019-01-05T07:00:00Z,30.3288,-87.8293,1.8,11.9,11111222 
DISL,ioos:station:DISL:BSCA:1,2019-01-05T07:30:00Z,30.3288,-87.8293,1.74,11.85,1111122 
DISL,ioos:station:DISL:BSCA:1,2019-01-05T08:00:00Z,30.3288,-87.8293,1.7,11.8,11111222 
DISL,ioos:station:DISL:BSCA:1,2019-01-05T08:30:00Z,30.3288,-87.8293,1.675,11.85,1111122 
DISL,ioos:station:DISL:BSCA:1,2019-01-05T09:00:00Z,30.3288,-87.8293,1.6,11.8,11111222 
DISL,ioos:station:DISL:BSCA:1,2019-01-05T09:30:00Z,30.3288,-87.8293,1.593,11.61,1111122 
DISL,ioos:station:DISL:BSCA:1,2019-01-05T10:00:00Z,30.3288,-87.8293,1.5,11.5,11111222 
DISL,ioos:station:DISL:BSCA:1,2019-01-05T10:30:00Z,30.3288,-87.8293,1.504,11.35,1111122 
DISL,ioos:station:DISL:BSCA:1,2019-01-05T11:00:00Z,30.3288,-87.8293,1.5,11.3,11111222 
DISL,ioos:station:DISL:BSCA:1,2019-01-05T11:30:00Z,30.3288,-87.8293,1.475,11.33,1111122 
DISL,ioos:station:DISL:BSCA:1,2019-01-05T12:00:00Z,30.3288,-87.8293,1.5,11.3,11111222 
DISL,ioos:station:DISL:BSCA:1,2019-01-05T12:30:00Z,30.3288,-87.8293,1.434,11.26,1111122 
DISL,ioos:station:DISL:BSCA:1,2019-01-05T13:00:00Z,30.3288,-87.8293,1.4,11.1,11111222 
DISL,ioos:station:DISL:BSCA:1,2019-01-05T13:30:00Z,30.3288,-87.8293,1.383,11.06,1111122 
DISL,ioos:station:DISL:BSCA:1,2019-01-05T14:00:00Z,30.3288,-87.8293,1.4,11.0,11111222 
DISL,ioos:station:DISL:BSCA:1,2019-01-05T14:30:00Z,30.3288,-87.8293,1.36,10.97,1111122 
DISL,ioos:station:DISL:BSCA:1,2019-01-05T15:00:00Z,30.3288,-87.8293,1.4,11.0,11111222 
DISL,ioos:station:DISL:BSCA:1,2019-01-05T15:30:00Z,30.3288,-87.8293,1.354,10.95,1111122 
DISL,ioos:station:DISL:BSCA:1,2019-01-05T16:00:00Z,30.3288,-87.8293,1.4,10.9,11111222 
DISL,ioos:station:DISL:BSCA:1,2019-01-05T16:30:00Z,30.3288,-87.8293,1.35,10.93,1111122 
DISL,ioos:station:DISL:BSCA:1,2019-01-05T17:00:00Z,30.3288,-87.8293,1.4,11.1,11111222 
DISL,ioos:station:DISL:BSCA:1,2019-01-05T17:30:00Z,30.3288,-87.8293,1.363,11.2,1111122 
DISL,ioos:station:DISL:BSCA:1,2019-01-05T18:00:00Z,30.3288,-87.8293,1.4,11.2,11111222 
DISL,ioos:station:DISL:BSCA:1,2019-01-05T18:30:00Z,30.3288,-87.8293,1.408,11.15,1111122 
DISL,ioos:station:DISL:BSCA:1,2019-01-05T19:00:00Z,30.3288,-87.8293,1.4,11.1,11111222 
DISL,ioos:station:DISL:BSCA:1,2019-01-05T19:30:00Z,30.3288,-87.8293,1.476,11.15,1111122 
DISL,ioos:station:DISL:BSCA:1,2019-01-05T20:00:00Z,30.3288,-87.8293,1.5,11.1,11111222 
DISL,ioos:station:DISL:BSCA:1,2019-01-05T20:30:00Z,30.3288,-87.8293,1.557,11.12,1111122 
DISL,ioos:station:DISL:BSCA:1,2019-01-05T21:00:00Z,30.3288,-87.8293,1.6,11.1,11111222 
DISL,ioos:station:DISL:BSCA:1,2019-01-05T21:30:00Z,30.3288,-87.8293,1.613,11.21,1111122 
DISL,ioos:station:DISL:BSCA:1,2019-01-05T22:00:00Z,30.3288,-87.8293,1.6,11.2,11111222 
DISL,ioos:station:DISL:BSCA:1,2019-01-05T22:30:00Z,30.3288,-87.8293,1.671,11.2,1111122 
DISL,ioos:station:DISL:BSCA:1,2019-01-05T23:00:00Z,30.3288,-87.8293,1.7,11.2,11111222 
DISL,ioos:station:DISL:BSCA:1,2019-01-05T23:30:00Z,30.3288,-87.8293,1.743,11.15,1111122 
DISL,ioos:station:DISL:BSCA:1,2019-01-06T00:00:00Z,30.3288,-87.8293,1.8,11.1,11111222 
DISL,ioos:station:DISL:BSCA:1,2019-01-06T00:30:00Z,30.3288,-87.8293,1.818,11.13,1111122 
DISL,ioos:station:DISL:BSCA:1,2019-01-06T01:00:00Z,30.3288,-87.8293,1.9,11.1,11111222 
DISL,ioos:station:DISL:BSCA:1,2019-01-06T01:30:00Z,30.3288,-87.8293,1.889,11.13,1111122 
DISL,ioos:station:DISL:BSCA:1,2019-01-06T02:00:00Z,30.3288,-87.8293,1.9,11.1,11111222 
DISL,ioos:station:DISL:BSCA:1,2019-01-06T02:30:00Z,30.3288,-87.8293,1.9,11.2,11111222 
DISL,ioos:station:DISL:BSCA:1,2019-01-06T03:00:00Z,30.3288,-87.8293,1.9,11.2,11111222 
DISL,ioos:station:DISL:BSCA:1,2019-01-06T03:30:00Z,30.3288,-87.8293,1.9,11.1,11111222 
DISL,ioos:station:DISL:BSCA:1,2019-01-06T04:00:00Z,30.3288,-87.8293,1.9,11.1,11111222 
DISL,ioos:station:DISL:BSCA:1,2019-01-06T04:30:00Z,30.3288,-87.8293,1.9,11.1,11111222 
DISL,ioos:station:DISL:BSCA:1,2019-01-06T05:00:00Z,30.3288,-87.8293,1.9,11.7,11111222 
DISL,ioos:station:DISL:BSCA:1,2019-01-06T05:30:00Z,30.3288,-87.8293,1.9,11.8,11111222 
DISL,ioos:station:DISL:BSCA:1,2019-01-06T06:00:00Z,30.3288,-87.8293,1.8,12.0,11111222 
DISL,ioos:station:DISL:BSCA:1,2019-01-06T06:30:00Z,30.3288,-87.8293,1.8,12.0,11111222 
DISL,ioos:station:DISL:BSCA:1,2019-01-06T07:00:00Z,30.3288,-87.8293,1.8,12.2,11111222 
DISL,ioos:station:DISL:BSCA:1,2019-01-06T07:30:00Z,30.3288,-87.8293,1.7,12.3,11111222 
DISL,ioos:station:DISL:BSCA:1,2019-01-06T08:00:00Z,30.3288,-87.8293,1.7,11.4,11111222 
DISL,ioos:station:DISL:BSCA:1,2019-01-06T08:30:00Z,30.3288,-87.8293,1.7,11.4,11111222 
DISL,ioos:station:DISL:BSCA:1,2019-01-06T09:00:00Z,30.3288,-87.8293,1.6,11.2,11111222 
DISL,ioos:station:DISL:BSCA:1,2019-01-06T09:30:00Z,30.3288,-87.8293,1.6,11.4,11111222 
DISL,ioos:station:DISL:BSCA:1,2019-01-06T10:00:00Z,30.3288,-87.8293,1.5,11.9,11111222 
DISL,ioos:station:DISL:BSCA:1,2019-01-06T10:30:00Z,30.3288,-87.8293,1.5,11.9,11111222 
DISL,ioos:station:DISL:BSCA:1,2019-01-06T11:00:00Z,30.3288,-87.8293,1.5,12.1,11111222 
DISL,ioos:station:DISL:BSCA:1,2019-01-06T11:30:00Z,30.3288,-87.8293,1.4,12.1,11111222 
DISL,ioos:station:DISL:BSCA:1,2019-01-06T12:00:00Z,30.3288,-87.8293,1.4,12.2,11111222 
DISL,ioos:station:DISL:BSCA:1,2019-01-06T12:30:00Z,30.3288,-87.8293,1.4,12.2,11111222 
DISL,ioos:station:DISL:BSCA:1,2019-01-06T13:00:00Z,30.3288,-87.8293,1.4,12.2,11111222 
DISL,ioos:station:DISL:BSCA:1,2019-01-06T13:30:00Z,30.3288,-87.8293,1.3,12.1,11111222 
DISL,ioos:station:DISL:BSCA:1,2019-01-06T14:00:00Z,30.3288,-87.8293,1.3,12.1,11111222 
DISL,ioos:station:DISL:BSCA:1,2019-01-06T14:30:00Z,30.3288,-87.8293,1.3,12.2,11111222 
DISL,ioos:station:DISL:BSCA:1,2019-01-06T15:00:00Z,30.3288,-87.8293,1.3,12.2,11111222 
DISL,ioos:station:DISL:BSCA:1,2019-01-06T15:30:00Z,30.3288,-87.8293,1.3,12.2,11111222 
DISL,ioos:station:DISL:BSCA:1,2019-01-06T16:00:00Z,30.3288,-87.8293,1.3,12.3,11111222 
DISL,ioos:station:DISL:BSCA:1,2019-01-06T16:30:00Z,30.3288,-87.8293,1.267,12.27,1111122 
DISL,ioos:station:DISL:BSCA:1,2019-01-06T17:00:00Z,30.3288,-87.8293,1.3,12.3,11111222 
DISL,ioos:station:DISL:BSCA:1,2019-01-06T17:30:00Z,30.3288,-87.8293,1.278,12.25,1111122 
DISL,ioos:station:DISL:BSCA:1,2019-01-06T18:00:00Z,30.3288,-87.8293,1.3,12.2,11111222 
DISL,ioos:station:DISL:BSCA:1,2019-01-06T18:30:00Z,30.3288,-87.8293,1.31,12.22,1111122 
DISL,ioos:station:DISL:BSCA:1,2019-01-06T19:00:00Z,30.3288,-87.8293,1.3,12.3,11111222 
DISL,ioos:station:DISL:BSCA:1,2019-01-06T19:30:00Z,30.3288,-87.8293,1.371,12.21,1111122 
DISL,ioos:station:DISL:BSCA:1,2019-01-06T20:00:00Z,30.3288,-87.8293,1.4,12.2,11111222 
DISL,ioos:station:DISL:BSCA:1,2019-01-06T20:30:00Z,30.3288,-87.8293,1.451,12.26,1111122 